QPF
0.02 0.02 0.01 0.01 0.01 0.00 0.01 0.01 0.01 0.03 0.04 0.04 0.05 0.05 0.04 0.05 0.05 0.05 0.05 0.06 0.06 0.05 0.04 0.04 0.03 0.02 0.03 0.03 0.03 0.03 0.03 0.04 0.04 0.05 0.05 0.04 0.03 0.04 0.04 0.04 0.05 0.06 0.08
0.02 0.03 0.02 0.01 0.01 0.00 0.00 0.01 0.01 0.02 0.03 0.05 0.05 0.05 0.04 0.04 0.04 0.04 0.04 0.05 0.06 0.05 0.04 0.03 0.02 0.02 0.03 0.03 0.03 0.03 0.03 0.03 0.04 0.04 0.05 0.05 0.04 0.04 0.05 0.05 0.05 0.05 0.06
0.02 0.02 0.02 0.01 0.01 0.01 0.01 0.01 0.02 0.02 0.04 0.05 0.04 0.04 0.04 0.04 0.05 0.04 0.04 0.05 0.05 0.05 0.03 0.02 0.02 0.01 0.02 0.03 0.04 0.03 0.03 0.03 0.03 0.03 0.05 0.06 0.06 0.05 0.05 0.05 0.04 0.04 0.05
0.02 0.02 0.02 0.02 0.02 0.02 0.02 0.02 0.03 0.05 0.06 0.04 0.04 0.04 0.04 0.04 0.04 0.04 0.04 0.05 0.04 0.03 0.03 0.03 0.02 0.01 0.02 0.03 0.03 0.04 0.04 0.04 0.04 0.04 0.06 0.07 0.07 0.07 0.06 0.05 0.04 0.03 0.03
0.01 0.01 0.02 0.03 0.04 0.04 0.03 0.03 0.03 0.04 0.04 0.04 0.05 0.05 0.04 0.04 0.05 0.04 0.04 0.04 0.03 0.03 0.03 0.03 0.03 0.02 0.01 0.02 0.03 0.04 0.05 0.05 0.05 0.05 0.06 0.07 0.07 0.07 0.05 0.04 0.04 0.04 0.03
0.01 0.02 0.03 0.03 0.04 0.05 0.06 0.05 0.05 0.04 0.04 0.05 0.06 0.07 0.06 0.05 0.05 0.05 0.05 0.04 0.04 0.03 0.03 0.03 0.02 0.02 0.02 0.03 0.03 0.03 0.06 0.08 0.06 0.06 0.06 0.04 0.04 0.05 0.04 0.04 0.04 0.03 0.03
0.02 0.02 0.02 0.02 0.03 0.05 0.06 0.06 0.06 0.06 0.05 0.06 0.07 0.08 0.09 0.08 0.07 0.07 0.07 0.07 0.06 0.04 0.03 0.03 0.03 0.04 0.04 0.03 0.03 0.03 0.05 0.07 0.07 0.06 0.05 0.03 0.03 0.04 0.04 0.03 0.03 0.03 0.02
0.02 0.01 0.01 0.02 0.02 0.03 0.06 0.07 0.07 0.08 0.07 0.07 0.07 0.08 0.09 0.08 0.07 0.07 0.07 0.06 0.06 0.05 0.04 0.03 0.05 0.05 0.04 0.04 0.04 0.03 0.02 0.02 0.03 0.04 0.04 0.03 0.03 0.03 0.03 0.03 0.02 0.02 0.03
0.02 0.01 0.01 0.01 0.01 0.02 0.03 0.05 0.06 0.08 0.10 0.09 0.07 0.07 0.08 0.07 0.05 0.05 0.05 0.05 0.05 0.05 0.05 0.04 0.04 0.04 0.04 0.04 0.04 0.03 0.02 0.01 0.01 0.01 0.02 0.02 0.02 0.01 0.02 0.02 0.02 0.02 0.02
0.02 0.02 0.02 0.02 0.03 0.03 0.03 0.04 0.05 0.05 0.09 0.11 0.09 0.08 0.08 0.07 0.05 0.03 0.03 0.03 0.04 0.04 0.04 0.04 0.04 0.03 0.02 0.02 0.03 0.03 0.02 0.02 0.01 0.01 0.01 0.01 0.01 0.01 0.01 0.02 0.02 0.02 0.03
0.02 0.02 0.02 0.03 0.03 0.04 0.04 0.05 0.06 0.06 0.07 0.10 0.11 0.09 0.08 0.06 0.03 0.02 0.01 0.01 0.02 0.03 0.04 0.04 0.04 0.03 0.03 0.02 0.02 0.02 0.02 0.01 0.01 0.01 0.01 0.02 0.01 0.02 0.02 0.02 0.02 0.03 0.03
0.02 0.02 0.02 0.02 0.03 0.04 0.06 0.06 0.06 0.07 0.07 0.08 0.09 0.09 0.07 0.06 0.03 0.02 0.02 0.02 0.02 0.01 0.02 0.03 0.04 0.05 0.04 0.03 0.03 0.03 0.03 0.02 0.02 0.02 0.02 0.02 0.02 0.03 0.03 0.03 0.02 0.02 0.02
0.02 0.02 0.03 0.03 0.03 0.03 0.03 0.04 0.05 0.05 0.05 0.05 0.06 0.07 0.07 0.04 0.02 0.02 0.02 0.01 0.01 0.01 0.01 0.01 0.02 0.02 0.03 0.03 0.03 0.03 0.03 0.03 0.03 0.03 0.03 0.03 0.02 0.02 0.02 0.02 0.01 0.01 0.01
0.03 0.04 0.04 0.04 0.03 0.05 0.05 0.05 0.05 0.06 0.05 0.05 0.06 0.06 0.06 0.05 0.02 0.01 0.01 0.01 0.01 0.01 0.01 0.02 0.02 0.02 0.02 0.02 0.02 0.03 0.02 0.02 0.02 0.02 0.02 0.02 0.02 0.02 0.02 0.02 0.02 0.01 0.01
0.04 0.04 0.04 0.04 0.04 0.06 0.06 0.05 0.04 0.05 0.06 0.06 0.06 0.05 0.04 0.03 0.02 0.01 0.01 0.01 0.01 0.01 0.01 0.01 0.01 0.01 0.01 0.01 0.01 0.01 0.01 0.01 0.01 0.01 0.01 0.01 0.01 0.02 0.02 0.03 0.03 0.03 0.03
0.03 0.03 0.04 0.04 0.05 0.04 0.03 0.03 0.02 0.02 0.02 0.03 0.04 0.04 0.03 0.03 0.02 0.02 0.01 0.01 0.01 0.01 0.01 0.00 0.01 0.01 0.01 0.01 0.01 0.01 0.01 0.01 0.01 0.01 0.01 0.01 0.01 0.01 0.01 0.02 0.03 0.03 0.03
0.04 0.03 0.03 0.03 0.03 0.03 0.03 0.03 0.03 0.03 0.02 0.02 0.03 0.04 0.04 0.04 0.03 0.02 0.02 0.02 0.02 0.02 0.01 0.01 0.01 0.01 0.01 0.01 0.01 0.01 0.01 0.01 0.01 0.01 0.02 0.01 0.01 0.01 0.01 0.02 0.02 0.02 0.02
0.04 0.04 0.04 0.03 0.03 0.03 0.03 0.03 0.03 0.03 0.03 0.04 0.04 0.03 0.04 0.05 0.05 0.04 0.03 0.03 0.02 0.02 0.02 0.01 0.01 0.01 0.02 0.02 0.01 0.02 0.02 0.02 0.02 0.02 0.02 0.02 0.01 0.01 0.02 0.02 0.02 0.02 0.02
0.05 0.04 0.04 0.03 0.04 0.04 0.04 0.03 0.02 0.02 0.04 0.05 0.05 0.04 0.04 0.06 0.08 0.06 0.05 0.03 0.02 0.03 0.02 0.02 0.02 0.02 0.02 0.02 0.02 0.02 0.03 0.02 0.02 0.02 0.02 0.02 0.02 0.01 0.02 0.02 0.02 0.02 0.01
0.03 0.03 0.03 0.03 0.04 0.05 0.05 0.04 0.03 0.03 0.04 0.06 0.05 0.04 0.04 0.05 0.06 0.05 0.04 0.03 0.02 0.02 0.03 0.03 0.04 0.03 0.03 0.03 0.03 0.03 0.03 0.03 0.03 0.03 0.03 0.03 0.02 0.01 0.01 0.01 0.02 0.01 0.01
0.03 0.02 0.02 0.02 0.04 0.05 0.06 0.05 0.04 0.03 0.04 0.06 0.05 0.05 0.05 0.05 0.05 0.05 0.04 0.03 0.03 0.02 0.03 0.03 0.03 0.03 0.03 0.03 0.03 0.03 0.03 0.04 0.04 0.04 0.04 0.04 0.03 0.02 0.02 0.02 0.02 0.01 0.01
0.06 0.05 0.04 0.03 0.03 0.05 0.06 0.07 0.06 0.05 0.06 0.08 0.07 0.06 0.07 0.07 0.06 0.05 0.05 0.04 0.04 0.03 0.03 0.03 0.02 0.03 0.02 0.02 0.02 0.03 0.03 0.03 0.03 0.03 0.03 0.03 0.04 0.03 0.02 0.02 0.03 0.02 0.02
0.05 0.05 0.05 0.04 0.04 0.05 0.06 0.07 0.09 0.08 0.07 0.07 0.06 0.07 0.07 0.06 0.05 0.05 0.04 0.03 0.02 0.02 0.02 0.02 0.02 0.02 0.02 0.01 0.01 0.02 0.02 0.02 0.02 0.02 0.02 0.02 0.03 0.03 0.03 0.03 0.03 0.03 0.03
0.04 0.05 0.04 0.04 0.04 0.05 0.06 0.06 0.08 0.08 0.07 0.05 0.04 0.04 0.05 0.04 0.03 0.03 0.03 0.02 0.02 0.02 0.02 0.02 0.02 0.02 0.02 0.02 0.02 0.02 0.03 0.03 0.02 0.01 0.01 0.02 0.03 0.03 0.03 0.02 0.02 0.02 0.03
0.04 0.05 0.04 0.04 0.04 0.04 0.06 0.07 0.07 0.06 0.07 0.06 0.04 0.05 0.06 0.04 0.02 0.02 0.02 0.02 0.02 0.01 0.01 0.02 0.02 0.02 0.02 0.02 0.02 0.02 0.04 0.04 0.03 0.01 0.01 0.02 0.03 0.03 0.03 0.03 0.02 0.02 0.02
0.05 0.05 0.05 0.05 0.05 0.06 0.07 0.08 0.09 0.07 0.06 0.05 0.04 0.05 0.05 0.03 0.03 0.02 0.02 0.02 0.01 0.01 0.01 0.01 0.01 0.02 0.02 0.02 0.02 0.02 0.03 0.04 0.03 0.02 0.01 0.01 0.02 0.03 0.03 0.03 0.03 0.02 0.01
MSLP
1008.71 1008.80 1008.85 1008.87 1008.90 1008.94 1009.02 1009.14 1009.31 1009.49 1009.70 1009.91 1010.10 1010.28 1010.43 1010.56 1010.67 1010.78 1010.89 1011.00 1011.13 1011.28 1011.46 1011.66 1011.90 1012.17 1012.45 1012.74 1013.02 1013.27 1013.45 1013.56 1013.58 1013.51 1013.36 1013.17 1012.95 1012.77 1012.65 1012.63 1012.73 1012.96 1013.30
1008.55 1008.56 1008.53 1008.49 1008.45 1008.44 1008.46 1008.54 1008.66 1008.83 1009.02 1009.23 1009.44 1009.63 1009.80 1009.94 1010.06 1010.17 1010.25 1010.34 1010.43 1010.54 1010.68 1010.86 1011.08 1011.35 1011.66 1011.99 1012.33 1012.64 1012.90 1013.09 1013.18 1013.17 1013.06 1012.88 1012.67 1012.46 1012.29 1012.21 1012.22 1012.34 1012.58
1008.53 1008.45 1008.35 1008.25 1008.15 1008.09 1008.07 1008.11 1008.21 1008.35 1008.53 1008.74 1008.95 1009.15 1009.34 1009.50 1009.63 1009.73 1009.81 1009.88 1009.95 1010.03 1010.13 1010.28 1010.49 1010.74 1011.05 1011.40 1011.76 1012.10 1012.41 1012.64 1012.77 1012.81 1012.74 1012.59 1012.38 1012.17 1011.97 1011.83 1011.78 1011.82 1011.96
1008.64 1008.49 1008.33 1008.17 1008.03 1007.92 1007.87 1007.88 1007.94 1008.06 1008.23 1008.43 1008.64 1008.85 1009.05 1009.22 1009.37 1009.48 1009.57 1009.63 1009.69 1009.75 1009.84 1009.96 1010.13 1010.36 1010.65 1010.98 1011.33 1011.67 1011.97 1012.21 1012.37 1012.42 1012.38 1012.25 1012.06 1011.85 1011.64 1011.47 1011.37 1011.34 1011.40
1008.86 1008.64 1008.42 1008.21 1008.03 1007.89 1007.80 1007.78 1007.81 1007.91 1008.06 1008.24 1008.45 1008.66 1008.87 1009.06 1009.23 1009.36 1009.46 1009.54 1009.60 1009.66 1009.74 1009.85 1010.00 1010.19 1010.44 1010.73 1011.04 1011.34 1011.61 1011.82 1011.96 1012.00 1011.96 1011.84 1011.66 1011.46 1011.26 1011.08 1010.95 1010.87 1010.85
1009.14 1008.86 1008.58 1008.33 1008.10 1007.92 1007.80 1007.74 1007.74 1007.81 1007.93 1008.09 1008.29 1008.51 1008.73 1008.94 1009.13 1009.29 1009.42 1009.53 1009.62 1009.70 1009.78 1009.88 1010.01 1010.18 1010.38 1010.61 1010.86 1011.10 1011.30 1011.45 1011.54 1011.55 1011.49 1011.36 1011.18 1010.99 1010.79 1010.61 1010.47 1010.36 1010.29
1009.43 1009.09 1008.76 1008.45 1008.17 1007.95 1007.78 1007.68 1007.64 1007.67 1007.76 1007.90 1008.08 1008.29 1008.52 1008.75 1008.97 1009.17 1009.35 1009.51 1009.64 1009.75 1009.86 1009.97 1010.10 1010.24 1010.41 1010.58 1010.76 1010.91 1011.04 1011.11 1011.12 1011.07 1010.96 1010.81 1010.62 1010.43 1010.24 1010.07 1009.92 1009.79 1009.70
1009.70 1009.30 1008.91 1008.54 1008.22 1007.94 1007.71 1007.56 1007.47 1007.45 1007.49 1007.60 1007.77 1007.97 1008.21 1008.46 1008.72 1008.96 1009.19 1009.40 1009.58 1009.75 1009.90 1010.04 1010.17 1010.31 1010.45 1010.57 1010.68 1010.76 1010.79 1010.77 1010.70 1010.57 1010.41 1010.21 1010.01 1009.80 1009.62 1009.45 1009.31 1009.19 1009.08
1009.96 1009.50 1009.06 1008.64 1008.25 1007.91 1007.63 1007.41 1007.26 1007.18 1007.18 1007.25 1007.39 1007.58 1007.82 1008.08 1008.37 1008.65 1008.93 1009.19 1009.43 1009.65 1009.85 1010.02 1010.18 1010.32 1010.44 1010.53 1010.57 1010.58 1010.53 1010.43 1010.27 1010.07 1009.84 1009.60 1009.36 1009.15 1008.96 1008.81 1008.69 1008.58 1008.48
1010.23 1009.74 1009.25 1008.78 1008.34 1007.95 1007.61 1007.33 1007.11 1006.98 1006.93 1006.95 1007.05 1007.22 1007.44 1007.70 1008.00 1008.31 1008.61 1008.91 1009.20 1009.45 1009.69 1009.90 1010.08 1010.22 1010.33 1010.40 1010.41 1010.35 1010.24 1010.07 1009.84 1009.57 1009.28 1009.00 1008.73 1008.50 1008.32 1008.18 1008.08 1008.00 1007.93
1010.58 1010.07 1009.56 1009.06 1008.58 1008.15 1007.76 1007.42 1007.16 1006.97 1006.86 1006.83 1006.89 1007.01 1007.21 1007.45 1007.73 1008.03 1008.34 1008.64 1008.93 1009.21 1009.46 1009.68 1009.86 1010.01 1010.11 1010.16 1010.14 1010.05 1009.89 1009.67 1009.39 1009.07 1008.74 1008.43 1008.14 1007.91 1007.73 1007.61 1007.54 1007.49 1007.46
1011.05 1010.54 1010.03 1009.53 1009.05 1008.59 1008.18 1007.81 1007.51 1007.28 1007.11 1007.03 1007.03 1007.11 1007.24 1007.43 1007.67 1007.92 1008.19 1008.46 1008.72 1008.97 1009.19 1009.39 1009.57 1009.70 1009.78 1009.81 1009.77 1009.66 1009.47 1009.22 1008.92 1008.58 1008.23 1007.90 1007.61 1007.38 1007.22 1007.12 1007.08 1007.07 1007.08
1011.65 1011.17 1010.69 1010.22 1009.76 1009.32 1008.91 1008.54 1008.22 1007.96 1007.76 1007.62 1007.57 1007.57 1007.63 1007.75 1007.90 1008.07 1008.25 1008.44 1008.63 1008.80 1008.96 1009.11 1009.23 1009.32 1009.37 1009.37 1009.32 1009.20 1009.01 1008.75 1008.45 1008.11 1007.77 1007.45 1007.17 1006.95 1006.80 1006.73 1006.72 1006.74 1006.79
1012.34 1011.92 1011.50 1011.09 1010.68 1010.29 1009.92 1009.57 1009.26 1008.99 1008.76 1008.59 1008.47 1008.41 1008.38 1008.40 1008.44 1008.50 1008.56 1008.63 1008.70 1008.76 1008.82 1008.87 1008.91 1008.94 1008.94 1008.91 1008.84 1008.71 1008.52 1008.28 1008.00 1007.69 1007.37 1007.07 1006.81 1006.62 1006.49 1006.44 1006.44 1006.49 1006.57
1013.08 1012.73 1012.39 1012.05 1011.73 1011.41 1011.10 1010.80 1010.52 1010.26 1010.03 1009.83 1009.67 1009.53 1009.42 1009.33 1009.25 1009.17 1009.10 1009.02 1008.95 1008.87 1008.80 1008.74 1008.68 1008.62 1008.57 1008.49 1008.40 1008.26 1008.09 1007.88 1007.62 1007.35 1007.07 1006.81 1006.58 1006.41 1006.30 1006.25 1006.26 1006.32 1006.39
1013.78 1013.49 1013.23 1012.98 1012.74 1012.51 1012.28 1012.05 1011.83 1011.60 1011.39 1011.18 1010.98 1010.79 1010.60 1010.41 1010.22 1010.02 1009.81 1009.59 1009.37 1009.15 1008.94 1008.76 1008.59 1008.45 1008.33 1008.21 1008.09 1007.95 1007.79 1007.60 1007.39 1007.16 1006.92 1006.69 1006.49 1006.33 1006.23 1006.17 1006.17 1006.20 1006.26
1014.36 1014.14 1013.94 1013.77 1013.61 1013.47 1013.32 1013.17 1013.00 1012.83 1012.65 1012.45 1012.24 1012.02 1011.77 1011.51 1011.23 1010.92 1010.59 1010.25 1009.91 1009.57 1009.25 1008.95 1008.69 1008.47 1008.28 1008.12 1007.97 1007.83 1007.68 1007.52 1007.34 1007.14 1006.94 1006.74 1006.56 1006.40 1006.28 1006.21 1006.17 1006.15 1006.16
1014.81 1014.61 1014.46 1014.35 1014.26 1014.18 1014.11 1014.03 1013.93 1013.82 1013.67 1013.50 1013.30 1013.07 1012.81 1012.50 1012.16 1011.79 1011.38 1010.96 1010.53 1010.10 1009.69 1009.32 1008.99 1008.71 1008.47 1008.27 1008.11 1007.96 1007.82 1007.68 1007.52 1007.34 1007.16 1006.97 1006.79 1006.62 1006.47 1006.35 1006.25 1006.17 1006.11
1015.12 1014.93 1014.80 1014.72 1014.67 1014.64 1014.62 1014.60 1014.56 1014.50 1014.41 1014.27 1014.10 1013.88 1013.62 1013.31 1012.95 1012.55 1012.11 1011.65 1011.18 1010.71 1010.26 1009.85 1009.48 1009.16 1008.89 1008.68 1008.50 1008.34 1008.20 1008.06 1007.91 1007.75 1007.57 1007.38 1007.17 1006.97 1006.78 1006.59 1006.42 1006.26 1006.12
1015.36 1015.16 1015.02 1014.94 1014.90 1014.90 1014.91 1014.93 1014.93 1014.91 1014.86 1014.77 1014.64 1014.45 1014.21 1013.92 1013.58 1013.19 1012.77 1012.31 1011.84 1011.37 1010.92 1010.50 1010.12 1009.80 1009.52 1009.29 1009.10 1008.94 1008.80 1008.65 1008.50 1008.33 1008.13 1007.92 1007.68 1007.43 1007.17 1006.92 1006.66 1006.42 1006.18
1015.62 1015.39 1015.22 1015.12 1015.07 1015.06 1015.08 1015.11 1015.13 1015.14 1015.13 1015.08 1014.98 1014.83 1014.64 1014.38 1014.08 1013.73 1013.34 1012.92 1012.49 1012.05 1011.63 1011.23 1010.87 1010.55 1010.28 1010.05 1009.86 1009.69 1009.53 1009.38 1009.21 1009.01 1008.79 1008.53 1008.25 1007.95 1007.62 1007.29 1006.95 1006.62 1006.29
1015.97 1015.70 1015.49 1015.35 1015.27 1015.24 1015.24 1015.27 1015.30 1015.32 1015.33 1015.30 1015.23 1015.12 1014.96 1014.75 1014.50 1014.20 1013.86 1013.49 1013.11 1012.72 1012.34 1011.98 1011.65 1011.36 1011.09 1010.87 1010.67 1010.50 1010.32 1010.14 1009.95 1009.72 1009.46 1009.16 1008.83 1008.47 1008.08 1007.67 1007.25 1006.83 1006.42
1016.44 1016.15 1015.90 1015.72 1015.60 1015.53 1015.51 1015.51 1015.53 1015.55 1015.55 1015.54 1015.49 1015.40 1015.27 1015.10 1014.89 1014.63 1014.34 1014.02 1013.69 1013.35 1013.02 1012.69 1012.39 1012.12 1011.87 1011.65 1011.45 1011.26 1011.07 1010.86 1010.64 1010.38 1010.08 1009.73 1009.35 1008.93 1008.48 1008.00 1007.51 1007.02 1006.55
1017.05 1016.73 1016.45 1016.23 1016.07 1015.97 1015.90 1015.88 1015.87 1015.87 1015.86 1015.85 1015.80 1015.72 1015.61 1015.46 1015.27 1015.05 1014.79 1014.51 1014.21 1013.91 1013.61 1013.32 1013.04 1012.78 1012.54 1012.32 1012.11 1011.90 1011.69 1011.46 1011.21 1010.91 1010.57 1010.19 1009.76 1009.29 1008.78 1008.25 1007.71 1007.16 1006.63
1017.71 1017.38 1017.08 1016.84 1016.65 1016.50 1016.41 1016.35 1016.31 1016.28 1016.26 1016.22 1016.17 1016.09 1015.98 1015.83 1015.65 1015.44 1015.20 1014.94 1014.66 1014.37 1014.08 1013.80 1013.53 1013.28 1013.04 1012.81 1012.59 1012.37 1012.14 1011.88 1011.60 1011.28 1010.91 1010.49 1010.02 1009.51 1008.97 1008.39 1007.80 1007.22 1006.65
1018.33 1018.01 1017.71 1017.45 1017.23 1017.06 1016.94 1016.85 1016.78 1016.73 1016.68 1016.63 1016.56 1016.46 1016.34 1016.18 1016.00 1015.78 1015.54 1015.27 1015.00 1014.71 1014.42 1014.13 1013.86 1013.59 1013.34 1013.10 1012.86 1012.62 1012.37 1012.10 1011.80 1011.45 1011.06 1010.61 1010.12 1009.58 1009.00 1008.40 1007.79 1007.18 1006.59
Thickness
5714 5711 5709 5706 5704 5702 5700 5699 5696 5693 5691 5689 5687 5685 5684 5682 5681 5680 5681 5680 5680 5680 5680 5680 5679 5680 5680 5681 5681 5680 5679 5678 5674 5674 5674 5673 5670 5670 5669 5669 5668 5667 5665
5710 5707 5704 5702 5700 5698 5697 5695 5692 5690 5687 5685 5683 5681 5680 5679 5677 5676 5675 5676 5675 5675 5675 5675 5674 5675 5674 5675 5675 5675 5675 5673 5671 5668 5667 5666 5664 5664 5663 5663 5664 5663 5661
5706 5704 5700 5698 5696 5694 5693 5691 5688 5685 5683 5681 5679 5677 5676 5675 5673 5672 5672 5672 5671 5671 5671 5670 5670 5670 5669 5670 5669 5670 5670 5669 5667 5664 5663 5662 5660 5659 5658 5658 5658 5656 5655
5700 5698 5696 5693 5691 5690 5688 5686 5684 5681 5678 5676 5674 5673 5672 5671 5670 5669 5668 5667 5666 5666 5666 5665 5665 5665 5664 5664 5664 5663 5663 5662 5661 5660 5659 5657 5656 5654 5653 5652 5651 5651 5650
5694 5692 5690 5689 5687 5685 5683 5681 5679 5677 5675 5673 5671 5669 5668 5667 5666 5665 5664 5663 5662 5661 5660 5659 5659 5658 5657 5658 5659 5658 5658 5657 5657 5655 5654 5653 5651 5649 5648 5648 5646 5645 5644
5688 5687 5686 5685 5682 5680 5678 5676 5675 5673 5671 5669 5668 5666 5664 5663 5660 5658 5658 5658 5657 5656 5655 5654 5653 5652 5651 5649 5650 5650 5650 5651 5652 5650 5649 5648 5645 5645 5643 5642 5641 5639 5638
5683 5683 5682 5680 5678 5676 5675 5672 5670 5669 5667 5665 5664 5662 5660 5657 5655 5654 5652 5654 5653 5651 5650 5649 5650 5650 5648 5648 5645 5644 5644 5643 5643 5644 5644 5642 5640 5640 5637 5636 5634 5633 5631
5678 5677 5676 5675 5674 5672 5670 5668 5666 5665 5663 5661 5660 5658 5656 5652 5649 5648 5647 5649 5649 5647 5646 5645 5644 5644 5644 5643 5643 5643 5642 5641 5639 5637 5638 5636 5635 5633 5631 5630 5628 5627 5626
5674 5673 5672 5671 5669 5667 5666 5664 5663 5661 5659 5658 5656 5654 5652 5649 5645 5644 5643 5646 5645 5644 5643 5642 5641 5640 5636 5636 5638 5639 5638 5637 5634 5632 5630 5629 5627 5626 5624 5624 5624 5624 5624
5670 5669 5669 5667 5665 5664 5662 5661 5659 5657 5656 5655 5653 5651 5649 5647 5642 5640 5639 5644 5643 5643 5641 5639 5635 5635 5632 5631 5634 5635 5634 5633 5633 5630 5627 5625 5624 5623 5620 5620 5622 5621 5621
5666 5666 5665 5663 5662 5661 5659 5657 5656 5654 5653 5651 5650 5648 5646 5644 5640 5638 5637 5642 5643 5641 5641 5639 5636 5630 5629 5628 5628 5630 5629 5627 5628 5628 5628 5627 5624 5622 5620 5618 5617 5617 5616
5662 5661 5660 5659 5659 5658 5655 5654 5653 5651 5650 5649 5647 5646 5645 5643 5640 5636 5635 5635 5637 5639 5638 5638 5634 5627 5626 5625 5625 5624 5623 5622 5627 5628 5627 5625 5623 5620 5618 5616 5613 5611 5610
5656 5655 5655 5655 5655 5654 5652 5651 5651 5649 5650 5649 5648 5647 5645 5643 5639 5635 5633 5632 5633 5635 5635 5631 5627 5624 5623 5623 5620 5620 5620 5623 5624 5624 5622 5621 5620 5617 5615 5611 5609 5608 5606
5650 5650 5651 5651 5650 5649 5649 5649 5649 5648 5648 5648 5646 5646 5644 5642 5640 5637 5635 5633 5630 5631 5631 5627 5623 5622 5621 5620 5619 5619 5619 5620 5620 5619 5618 5617 5616 5613 5612 5610 5608 5606 5605
5645 5646 5647 5647 5646 5645 5645 5644 5645 5644 5644 5643 5643 5643 5641 5639 5635 5632 5633 5633 5632 5632 5629 5628 5626 5625 5624 5624 5622 5620 5619 5617 5616 5615 5614 5612 5611 5609 5607 5607 5605 5604 5602
5640 5641 5642 5642 5642 5643 5642 5641 5637 5637 5636 5635 5634 5635 5636 5632 5629 5627 5626 5625 5624 5622 5624 5627 5626 5625 5624 5623 5621 5619 5617 5615 5613 5611 5609 5608 5606 5605 5603 5602 5600 5599 5597
5634 5635 5637 5638 5639 5639 5639 5638 5636 5632 5630 5629 5629 5628 5627 5625 5623 5622 5621 5620 5619 5618 5623 5626 5625 5623 5622 5621 5619 5617 5614 5611 5608 5606 5604 5603 5602 5601 5599 5597 5595 5593 5591
5630 5630 5631 5633 5635 5636 5636 5635 5635 5634 5632 5631 5626 5623 5622 5620 5619 5618 5617 5616 5618 5618 5623 5623 5622 5620 5619 5617 5615 5613 5611 5608 5605 5603 5601 5599 5598 5596 5593 5591 5589 5587 5586
5625 5626 5627 5628 5630 5632 5633 5633 5633 5633 5632 5631 5630 5624 5619 5617 5615 5613 5613 5618 5621 5621 5621 5620 5619 5617 5615 5613 5610 5608 5605 5603 5600 5599 5597 5594 5593 5590 5588 5586 5585 5579 5579
5620 5619 5621 5624 5626 5627 5628 5629 5630 5630 5630 5630 5629 5628 5622 5619 5619 5615 5615 5618 5619 5619 5617 5616 5615 5612 5610 5608 5605 5603 5601 5598 5596 5594 5592 5590 5588 5586 5584 5581 5581 5579 5577
5616 5617 5615 5619 5622 5623 5624 5626 5627 5628 5628 5628 5627 5626 5620 5622 5621 5619 5617 5615 5614 5613 5611 5610 5608 5607 5604 5602 5601 5599 5596 5594 5592 5589 5587 5585 5583 5581 5580 5579 5577 5576 5574
5610 5612 5614 5616 5617 5618 5620 5622 5625 5626 5626 5625 5624 5621 5614 5618 5618 5616 5613 5611 5610 5608 5606 5604 5602 5600 5598 5596 5594 5592 5590 5588 5586 5583 5581 5579 5578 5577 5576 5574 5572 5570 5568
5605 5607 5608 5610 5612 5611 5614 5618 5619 5621 5621 5621 5620 5617 5614 5613 5612 5610 5608 5606 5604 5602 5600 5597 5595 5594 5592 5589 5587 5586 5584 5582 5579 5576 5574 5574 5574 5573 5571 5569 5566 5564 5562
5600 5602 5604 5605 5606 5608 5610 5612 5613 5614 5615 5614 5614 5613 5611 5608 5607 5605 5604 5602 5599 5596 5594 5591 5589 5587 5584 5582 5581 5580 5576 5573 5570 5569 5567 5567 5567 5566 5565 5563 5561 5559 5556
5594 5596 5599 5600 5601 5602 5604 5605 5607 5607 5607 5607 5606 5605 5605 5603 5602 5600 5598 5596 5593 5591 5588 5586 5583 5581 5579 5576 5574 5572 5567 5564 5562 5561 5560 5560 5560 5558 5557 5555 5554 5552 5550
5588 5590 5593 5594 5595 5596 5597 5598 5599 5600 5599 5600 5600 5599 5597 5596 5595 5594 5593 5590 5588 5586 5583 5581 5578 5576 5573 5570 5567 5563 5559 5557 5554 5553 5552 5553 5553 5551 5549 5548 5546 5545 5543